owner,sensor,date,latitude,longitude,air_temperature,qcFlag 
WAVCIS,ioos:station:WAVCIS:CSI03:1,2014-07-01T16:00:00Z,29.4412,-92.0613,29.8,11111222 
WAVCIS,ioos:station:WAVCIS:CSI03:1,2014-07-01T17:00:00Z,29.4412,-92.0613,29.5,11111222 
WAVCIS,ioos:station:WAVCIS:CSI03:1,2014-07-01T18:00:00Z,29.4412,-92.0613,30.5,11111222 
WAVCIS,ioos:station:WAVCIS:CSI03:1,2014-07-01T19:00:00Z,29.4412,-92.0613,30.0,11111222 
WAVCIS,ioos:station:WAVCIS:CSI03:1,2014-07-02T11:00:00Z,29.4412,-92.0613,28.4,11111222 
WAVCIS,ioos:station:WAVCIS:CSI03:1,2014-07-02T12:00:00Z,29.4412,-92.0613,27.7,11111222 
WAVCIS,ioos:station:WAVCIS:CSI03:1,2014-07-02T13:00:00Z,29.4412,-92.0613,27.9,11111222 
WAVCIS,ioos:station:WAVCIS:CSI03:1,2014-07-02T14:00:00Z,29.4412,-92.0613,28.1,11111222 
WAVCIS,ioos:station:WAVCIS:CSI03:1,2014-07-02T15:00:00Z,29.4412,-92.0613,28.3,11111222 
WAVCIS,ioos:station:WAVCIS:CSI03:1,2014-07-02T16:00:00Z,29.4412,-92.0613,28.4,11111222 
WAVCIS,ioos:station:WAVCIS:CSI03:1,2014-07-02T17:00:00Z,29.4412,-92.0613,29.0,11111222 
WAVCIS,ioos:station:WAVCIS:CSI03:1,2014-07-02T18:00:00Z,29.4412,-92.0613,31.5,11111222 
WAVCIS,ioos:station:WAVCIS:CSI03:1,2014-07-02T19:00:00Z,29.4412,-92.0613,30.9,11111222 
WAVCIS,ioos:station:WAVCIS:CSI03:1,2014-07-02T20:00:00Z,29.4412,-92.0613,30.6,11111222 
WAVCIS,ioos:station:WAVCIS:CSI03:1,2014-07-02T21:00:00Z,29.4412,-92.0613,30.1,11111222 
WAVCIS,ioos:station:WAVCIS:CSI03:1,2014-07-02T22:00:00Z,29.4412,-92.0613,30.1,11111222 
WAVCIS,ioos:station:WAVCIS:CSI03:1,2014-07-02T23:00:00Z,29.4412,-92.0613,30.2,11111222 
WAVCIS,ioos:station:WAVCIS:CSI03:1,2014-07-03T00:00:00Z,29.4412,-92.0613,30.7,11111222 
WAVCIS,ioos:station:WAVCIS:CSI03:1,2014-07-03T01:00:00Z,29.4412,-92.0613,29.9,11111222 
WAVCIS,ioos:station:WAVCIS:CSI03:1,2014-07-03T02:00:00Z,29.4412,-92.0613,29.6,11111222 
WAVCIS,ioos:station:WAVCIS:CSI03:1,2014-07-03T03:00:00Z,29.4412,-92.0613,29.9,11111222 
WAVCIS,ioos:station:WAVCIS:CSI03:1,2014-07-03T04:00:00Z,29.4412,-92.0613,29.3,11111222 
WAVCIS,ioos:station:WAVCIS:CSI03:1,2014-07-03T05:00:00Z,29.4412,-92.0613,28.8,11111222 
WAVCIS,ioos:station:WAVCIS:CSI03:1,2014-07-03T06:00:00Z,29.4412,-92.0613,28.4,11111222 
WAVCIS,ioos:station:WAVCIS:CSI03:1,2014-07-03T07:00:00Z,29.4412,-92.0613,28.6,11111222 
WAVCIS,ioos:station:WAVCIS:CSI03:1,2014-07-03T08:00:00Z,29.4412,-92.0613,28.2,11111222 
WAVCIS,ioos:station:WAVCIS:CSI03:1,2014-07-03T09:00:00Z,29.4412,-92.0613,27.1,11111222 
WAVCIS,ioos:station:WAVCIS:CSI03:1,2014-07-03T10:00:00Z,29.4412,-92.0613,27.2,11111222 
WAVCIS,ioos:station:WAVCIS:CSI03:1,2014-07-03T11:00:00Z,29.4412,-92.0613,27.3,11111222 
WAVCIS,ioos:station:WAVCIS:CSI03:1,2014-07-03T12:00:00Z,29.4412,-92.0613,26.9,11111222 
WAVCIS,ioos:station:WAVCIS:CSI03:1,2014-07-03T13:00:00Z,29.4412,-92.0613,26.9,11111222 
WAVCIS,ioos:station:WAVCIS:CSI03:1,2014-07-03T14:00:00Z,29.4412,-92.0613,27.7,11111222 
WAVCIS,ioos:station:WAVCIS:CSI03:1,2014-07-03T15:00:00Z,29.4412,-92.0613,27.0,11111222 
WAVCIS,ioos:station:WAVCIS:CSI03:1,2014-07-03T16:00:00Z,29.4412,-92.0613,27.5,11111222 
WAVCIS,ioos:station:WAVCIS:CSI03:1,2014-07-03T17:00:00Z,29.4412,-92.0613,28.5,11111222 
WAVCIS,ioos:station:WAVCIS:CSI03:1,2014-07-03T18:00:00Z,29.4412,-92.0613,29.0,11111222 
WAVCIS,ioos:station:WAVCIS:CSI03:1,2014-07-03T19:00:00Z,29.4412,-92.0613,29.9,11111222 
WAVCIS,ioos:station:WAVCIS:CSI03:1,2014-07-03T20:00:00Z,29.4412,-92.0613,30.7,11111222 
WAVCIS,ioos:station:WAVCIS:CSI03:1,2014-07-03T21:00:00Z,29.4412,-92.0613,31.3,11111222 
WAVCIS,ioos:station:WAVCIS:CSI03:1,2014-07-03T22:00:00Z,29.4412,-92.0613,31.8,11111222 
WAVCIS,ioos:station:WAVCIS:CSI03:1,2014-07-03T23:00:00Z,29.4412,-92.0613,31.4,11111222 
WAVCIS,ioos:station:WAVCIS:CSI03:1,2014-07-04T00:00:00Z,29.4412,-92.0613,30.7,11111222 
WAVCIS,ioos:station:WAVCIS:CSI03:1,2014-07-04T02:00:00Z,29.4412,-92.0613,30.7,11111222 
WAVCIS,ioos:station:WAVCIS:CSI03:1,2014-07-04T03:00:00Z,29.4412,-92.0613,30.3,11111222 
WAVCIS,ioos:station:WAVCIS:CSI03:1,2014-07-04T06:00:00Z,29.4412,-92.0613,28.0,11111222 
WAVCIS,ioos:station:WAVCIS:CSI03:1,2014-07-04T08:00:00Z,29.4412,-92.0613,27.0,11111222 
WAVCIS,ioos:station:WAVCIS:CSI03:1,2014-07-04T09:00:00Z,29.4412,-92.0613,27.2,11111222 
WAVCIS,ioos:station:WAVCIS:CSI03:1,2014-07-04T10:00:00Z,29.4412,-92.0613,26.9,11111222 
WAVCIS,ioos:station:WAVCIS:CSI03:1,2014-07-04T12:00:00Z,29.4412,-92.0613,26.6,11111222 
WAVCIS,ioos:station:WAVCIS:CSI03:1,2014-07-04T13:00:00Z,29.4412,-92.0613,26.5,11111222 
WAVCIS,ioos:station:WAVCIS:CSI03:1,2014-07-04T14:00:00Z,29.4412,-92.0613,26.8,11111222 
WAVCIS,ioos:station:WAVCIS:CSI03:1,2014-07-04T16:00:00Z,29.4412,-92.0613,27.8,11111222 
WAVCIS,ioos:station:WAVCIS:CSI03:1,2014-07-04T18:00:00Z,29.4412,-92.0613,29.0,11111222 
WAVCIS,ioos:station:WAVCIS:CSI03:1,2014-07-05T03:00:00Z,29.4412,-92.0613,29.2,11111222 
WAVCIS,ioos:station:WAVCIS:CSI03:1,2014-07-05T05:00:00Z,29.4412,-92.0613,28.1,11111222 
WAVCIS,ioos:station:WAVCIS:CSI03:1,2014-07-05T06:00:00Z,29.4412,-92.0613,27.1,11111222 
WAVCIS,ioos:station:WAVCIS:CSI03:1,2014-07-05T07:00:00Z,29.4412,-92.0613,26.6,11111222 
WAVCIS,ioos:station:WAVCIS:CSI03:1,2014-07-05T08:00:00Z,29.4412,-92.0613,26.6,11111222 
WAVCIS,ioos:station:WAVCIS:CSI03:1,2014-07-05T09:00:00Z,29.4412,-92.0613,26.2,11111222 
WAVCIS,ioos:station:WAVCIS:CSI03:1,2014-07-05T10:00:00Z,29.4412,-92.0613,26.1,11111222 
WAVCIS,ioos:station:WAVCIS:CSI03:1,2014-07-05T11:00:00Z,29.4412,-92.0613,25.6,11111222 
WAVCIS,ioos:station:WAVCIS:CSI03:1,2014-07-05T12:00:00Z,29.4412,-92.0613,25.6,11111222 
WAVCIS,ioos:station:WAVCIS:CSI03:1,2014-07-05T13:00:00Z,29.4412,-92.0613,25.8,11111222 
WAVCIS,ioos:station:WAVCIS:CSI03:1,2014-07-05T14:00:00Z,29.4412,-92.0613,26.1,11111222 
WAVCIS,ioos:station:WAVCIS:CSI03:1,2014-07-05T15:00:00Z,29.4412,-92.0613,26.7,11111222 
WAVCIS,ioos:station:WAVCIS:CSI03:1,2014-07-05T16:00:00Z,29.4412,-92.0613,27.1,11111222 
WAVCIS,ioos:station:WAVCIS:CSI03:1,2014-07-05T17:00:00Z,29.4412,-92.0613,27.4,11111222 
WAVCIS,ioos:station:WAVCIS:CSI03:1,2014-07-06T02:00:00Z,29.4412,-92.0613,29.1,11111222 
WAVCIS,ioos:station:WAVCIS:CSI03:1,2014-07-06T03:00:00Z,29.4412,-92.0613,28.7,11111222 
WAVCIS,ioos:station:WAVCIS:CSI03:1,2014-07-06T04:00:00Z,29.4412,-92.0613,28.5,11111222 
WAVCIS,ioos:station:WAVCIS:CSI03:1,2014-07-06T06:00:00Z,29.4412,-92.0613,28.4,11111222 
WAVCIS,ioos:station:WAVCIS:CSI03:1,2014-07-06T07:00:00Z,29.4412,-92.0613,28.1,11111222 
WAVCIS,ioos:station:WAVCIS:CSI03:1,2014-07-06T08:00:00Z,29.4412,-92.0613,28.0,11111222 
WAVCIS,ioos:station:WAVCIS:CSI03:1,2014-07-06T09:00:00Z,29.4412,-92.0613,28.0,11111222 
WAVCIS,ioos:station:WAVCIS:CSI03:1,2014-07-06T10:00:00Z,29.4412,-92.0613,27.8,11111222 
WAVCIS,ioos:station:WAVCIS:CSI03:1,2014-07-06T11:00:00Z,29.4412,-92.0613,27.2,11111222 
WAVCIS,ioos:station:WAVCIS:CSI03:1,2014-07-06T12:00:00Z,29.4412,-92.0613,27.8,11111222 
WAVCIS,ioos:station:WAVCIS:CSI03:1,2014-07-06T14:00:00Z,29.4412,-92.0613,29.9,11111222 
WAVCIS,ioos:station:WAVCIS:CSI03:1,2014-07-06T16:00:00Z,29.4412,-92.0613,29.5,11111222 
WAVCIS,ioos:station:WAVCIS:CSI03:1,2014-07-07T01:00:00Z,29.4412,-92.0613,30.2,11111222 
WAVCIS,ioos:station:WAVCIS:CSI03:1,2014-07-07T05:00:00Z,29.4412,-92.0613,29.4,11111222 
WAVCIS,ioos:station:WAVCIS:CSI03:1,2014-07-07T09:00:00Z,29.4412,-92.0613,29.1,11111222 
WAVCIS,ioos:station:WAVCIS:CSI03:1,2014-07-07T10:00:00Z,29.4412,-92.0613,29.1,11111222 
WAVCIS,ioos:station:WAVCIS:CSI03:1,2014-07-07T11:00:00Z,29.4412,-92.0613,29.0,11111222 
WAVCIS,ioos:station:WAVCIS:CSI03:1,2014-07-07T12:00:00Z,29.4412,-92.0613,29.1,11111222 
WAVCIS,ioos:station:WAVCIS:CSI03:1,2014-07-07T13:00:00Z,29.4412,-92.0613,29.3,11111222 
WAVCIS,ioos:station:WAVCIS:CSI03:1,2014-07-07T14:00:00Z,29.4412,-92.0613,29.3,11111222 
WAVCIS,ioos:station:WAVCIS:CSI03:1,2014-07-07T17:00:00Z,29.4412,-92.0613,30.0,11111222 
WAVCIS,ioos:station:WAVCIS:CSI03:1,2014-07-08T03:00:00Z,29.4412,-92.0613,29.7,11111222 
WAVCIS,ioos:station:WAVCIS:CSI03:1,2014-07-08T04:00:00Z,29.4412,-92.0613,30.0,11111222 
WAVCIS,ioos:station:WAVCIS:CSI03:1,2014-07-08T05:00:00Z,29.4412,-92.0613,29.6,11111222 
WAVCIS,ioos:station:WAVCIS:CSI03:1,2014-07-08T06:00:00Z,29.4412,-92.0613,29.8,11111222 
WAVCIS,ioos:station:WAVCIS:CSI03:1,2014-07-08T07:00:00Z,29.4412,-92.0613,28.8,11111222 
WAVCIS,ioos:station:WAVCIS:CSI03:1,2014-07-08T08:00:00Z,29.4412,-92.0613,29.5,11111222 
WAVCIS,ioos:station:WAVCIS:CSI03:1,2014-07-08T09:00:00Z,29.4412,-92.0613,30.3,11111222 
WAVCIS,ioos:station:WAVCIS:CSI03:1,2014-07-08T10:00:00Z,29.4412,-92.0613,29.9,11111222 
WAVCIS,ioos:station:WAVCIS:CSI03:1,2014-07-08T11:00:00Z,29.4412,-92.0613,30.8,11111222 
WAVCIS,ioos:station:WAVCIS:CSI03:1,2014-07-08T12:00:00Z,29.4412,-92.0613,28.5,11111222 
WAVCIS,ioos:station:WAVCIS:CSI03:1,2014-07-08T14:00:00Z,29.4412,-92.0613,23.6,11111222 
WAVCIS,ioos:station:WAVCIS:CSI03:1,2014-07-08T15:00:00Z,29.4412,-92.0613,26.5,11111222 
WAVCIS,ioos:station:WAVCIS:CSI03:1,2014-07-08T16:00:00Z,29.4412,-92.0613,27.0,11111222 
WAVCIS,ioos:station:WAVCIS:CSI03:1,2014-07-08T17:00:00Z,29.4412,-92.0613,27.7,11111222 
WAVCIS,ioos:station:WAVCIS:CSI03:1,2014-07-08T18:00:00Z,29.4412,-92.0613,29.0,11111222 
WAVCIS,ioos:station:WAVCIS:CSI03:1,2014-07-08T19:00:00Z,29.4412,-92.0613,30.1,11111222 
WAVCIS,ioos:station:WAVCIS:CSI03:1,2014-07-08T20:00:00Z,29.4412,-92.0613,30.6,11111222 
WAVCIS,ioos:station:WAVCIS:CSI03:1,2014-07-08T21:00:00Z,29.4412,-92.0613,30.3,11111222 
WAVCIS,ioos:station:WAVCIS:CSI03:1,2014-07-08T22:00:00Z,29.4412,-92.0613,28.8,11111222 
WAVCIS,ioos:station:WAVCIS:CSI03:1,2014-07-08T23:00:00Z,29.4412,-92.0613,29.8,11111222 
WAVCIS,ioos:station:WAVCIS:CSI03:1,2014-07-09T00:00:00Z,29.4412,-92.0613,29.9,11111222 
WAVCIS,ioos:station:WAVCIS:CSI03:1,2014-07-09T01:00:00Z,29.4412,-92.0613,26.5,11111222 
WAVCIS,ioos:station:WAVCIS:CSI03:1,2014-07-09T02:00:00Z,29.4412,-92.0613,27.5,11111222 
WAVCIS,ioos:station:WAVCIS:CSI03:1,2014-07-09T03:00:00Z,29.4412,-92.0613,28.1,11111222 
WAVCIS,ioos:station:WAVCIS:CSI03:1,2014-07-09T04:00:00Z,29.4412,-92.0613,29.1,11111222 
WAVCIS,ioos:station:WAVCIS:CSI03:1,2014-07-09T05:00:00Z,29.4412,-92.0613,29.2,11111222 
WAVCIS,ioos:station:WAVCIS:CSI03:1,2014-07-09T06:00:00Z,29.4412,-92.0613,29.2,11111222 
WAVCIS,ioos:station:WAVCIS:CSI03:1,2014-07-09T07:00:00Z,29.4412,-92.0613,26.2,11111222 
WAVCIS,ioos:station:WAVCIS:CSI03:1,2014-07-09T08:00:00Z,29.4412,-92.0613,28.5,11111222 
WAVCIS,ioos:station:WAVCIS:CSI03:1,2014-07-09T09:00:00Z,29.4412,-92.0613,27.8,11111222 
WAVCIS,ioos:station:WAVCIS:CSI03:1,2014-07-09T10:00:00Z,29.4412,-92.0613,28.3,11111222 
WAVCIS,ioos:station:WAVCIS:CSI03:1,2014-07-09T11:00:00Z,29.4412,-92.0613,28.4,11111222 
WAVCIS,ioos:station:WAVCIS:CSI03:1,2014-07-09T12:00:00Z,29.4412,-92.0613,28.9,11111222 
WAVCIS,ioos:station:WAVCIS:CSI03:1,2014-07-09T13:00:00Z,29.4412,-92.0613,29.7,11111222 
WAVCIS,ioos:station:WAVCIS:CSI03:1,2014-07-09T14:00:00Z,29.4412,-92.0613,30.1,11111222 
WAVCIS,ioos:station:WAVCIS:CSI03:1,2014-07-09T15:00:00Z,29.4412,-92.0613,29.5,11111222 
WAVCIS,ioos:station:WAVCIS:CSI03:1,2014-07-09T16:00:00Z,29.4412,-92.0613,30.0,11111222 
WAVCIS,ioos:station:WAVCIS:CSI03:1,2014-07-09T17:00:00Z,29.4412,-92.0613,30.2,11111222 
WAVCIS,ioos:station:WAVCIS:CSI03:1,2014-07-09T18:00:00Z,29.4412,-92.0613,30.7,11111222 
WAVCIS,ioos:station:WAVCIS:CSI03:1,2014-07-09T19:00:00Z,29.4412,-92.0613,31.1,11111222 
WAVCIS,ioos:station:WAVCIS:CSI03:1,2014-07-09T20:00:00Z,29.4412,-92.0613,29.5,11111222 
WAVCIS,ioos:station:WAVCIS:CSI03:1,2014-07-09T21:00:00Z,29.4412,-92.0613,31.0,11111222 
WAVCIS,ioos:station:WAVCIS:CSI03:1,2014-07-09T22:00:00Z,29.4412,-92.0613,30.8,11111222 
WAVCIS,ioos:station:WAVCIS:CSI03:1,2014-07-09T23:00:00Z,29.4412,-92.0613,32.1,11111222 
WAVCIS,ioos:station:WAVCIS:CSI03:1,2014-07-10T00:00:00Z,29.4412,-92.0613,27.8,11111222 
WAVCIS,ioos:station:WAVCIS:CSI03:1,2014-07-10T01:00:00Z,29.4412,-92.0613,27.8,11111222 
WAVCIS,ioos:station:WAVCIS:CSI03:1,2014-07-10T02:00:00Z,29.4412,-92.0613,29.1,11111222 
WAVCIS,ioos:station:WAVCIS:CSI03:1,2014-07-10T03:00:00Z,29.4412,-92.0613,29.6,11111222 
WAVCIS,ioos:station:WAVCIS:CSI03:1,2014-07-10T04:00:00Z,29.4412,-92.0613,29.9,11111222 
WAVCIS,ioos:station:WAVCIS:CSI03:1,2014-07-10T05:00:00Z,29.4412,-92.0613,29.8,11111222 
WAVCIS,ioos:station:WAVCIS:CSI03:1,2014-07-10T06:00:00Z,29.4412,-92.0613,30.1,11111222 
WAVCIS,ioos:station:WAVCIS:CSI03:1,2014-07-10T07:00:00Z,29.4412,-92.0613,29.3,11111222 
WAVCIS,ioos:station:WAVCIS:CSI03:1,2014-07-10T08:00:00Z,29.4412,-92.0613,29.3,11111222 
WAVCIS,ioos:station:WAVCIS:CSI03:1,2014-07-10T09:00:00Z,29.4412,-92.0613,29.3,11111222 
WAVCIS,ioos:station:WAVCIS:CSI03:1,2014-07-10T10:00:00Z,29.4412,-92.0613,29.3,11111222 
WAVCIS,ioos:station:WAVCIS:CSI03:1,2014-07-10T11:00:00Z,29.4412,-92.0613,29.2,11111222 
WAVCIS,ioos:station:WAVCIS:CSI03:1,2014-07-10T12:00:00Z,29.4412,-92.0613,29.7,11111222 
WAVCIS,ioos:station:WAVCIS:CSI03:1,2014-07-10T13:00:00Z,29.4412,-92.0613,30.4,11111222 
WAVCIS,ioos:station:WAVCIS:CSI03:1,2014-07-10T14:00:00Z,29.4412,-92.0613,30.5,11111222 
WAVCIS,ioos:station:WAVCIS:CSI03:1,2014-07-10T15:00:00Z,29.4412,-92.0613,30.1,11111222 
WAVCIS,ioos:station:WAVCIS:CSI03:1,2014-07-10T16:00:00Z,29.4412,-92.0613,31.4,11111222 
WAVCIS,ioos:station:WAVCIS:CSI03:1,2014-07-10T17:00:00Z,29.4412,-92.0613,28.4,11111222 
WAVCIS,ioos:station:WAVCIS:CSI03:1,2014-07-10T18:00:00Z,29.4412,-92.0613,29.2,11111222 
WAVCIS,ioos:station:WAVCIS:CSI03:1,2014-07-10T19:00:00Z,29.4412,-92.0613,30.9,11111222 
WAVCIS,ioos:station:WAVCIS:CSI03:1,2014-07-10T20:00:00Z,29.4412,-92.0613,29.1,11111222 
WAVCIS,ioos:station:WAVCIS:CSI03:1,2014-07-10T21:00:00Z,29.4412,-92.0613,31.0,11111222 
WAVCIS,ioos:station:WAVCIS:CSI03:1,2014-07-10T22:00:00Z,29.4412,-92.0613,31.4,11111222 
WAVCIS,ioos:station:WAVCIS:CSI03:1,2014-07-10T23:00:00Z,29.4412,-92.0613,31.5,11111222 
WAVCIS,ioos:station:WAVCIS:CSI03:1,2014-07-11T00:00:00Z,29.4412,-92.0613,31.4,11111222 
WAVCIS,ioos:station:WAVCIS:CSI03:1,2014-07-11T01:00:00Z,29.4412,-92.0613,30.8,11111222 
WAVCIS,ioos:station:WAVCIS:CSI03:1,2014-07-11T02:00:00Z,29.4412,-92.0613,30.3,11111222 
WAVCIS,ioos:station:WAVCIS:CSI03:1,2014-07-11T03:00:00Z,29.4412,-92.0613,30.0,11111222 
WAVCIS,ioos:station:WAVCIS:CSI03:1,2014-07-11T04:00:00Z,29.4412,-92.0613,29.6,11111222 
WAVCIS,ioos:station:WAVCIS:CSI03:1,2014-07-11T05:00:00Z,29.4412,-92.0613,29.4,11111222 
WAVCIS,ioos:station:WAVCIS:CSI03:1,2014-07-11T06:00:00Z,29.4412,-92.0613,29.2,11111222 
WAVCIS,ioos:station:WAVCIS:CSI03:1,2014-07-11T07:00:00Z,29.4412,-92.0613,29.7,11111222 
WAVCIS,ioos:station:WAVCIS:CSI03:1,2014-07-11T08:00:00Z,29.4412,-92.0613,29.4,11111222 
WAVCIS,ioos:station:WAVCIS:CSI03:1,2014-07-11T09:00:00Z,29.4412,-92.0613,29.6,11111222 
WAVCIS,ioos:station:WAVCIS:CSI03:1,2014-07-11T10:00:00Z,29.4412,-92.0613,29.4,11111222 
WAVCIS,ioos:station:WAVCIS:CSI03:1,2014-07-11T11:00:00Z,29.4412,-92.0613,29.0,11111222 
WAVCIS,ioos:station:WAVCIS:CSI03:1,2014-07-11T12:00:00Z,29.4412,-92.0613,28.9,11111222 
WAVCIS,ioos:station:WAVCIS:CSI03:1,2014-07-11T13:00:00Z,29.4412,-92.0613,29.9,11111222 
WAVCIS,ioos:station:WAVCIS:CSI03:1,2014-07-11T14:00:00Z,29.4412,-92.0613,29.3,11111222 
WAVCIS,ioos:station:WAVCIS:CSI03:1,2014-07-11T15:00:00Z,29.4412,-92.0613,29.8,11111222 
WAVCIS,ioos:station:WAVCIS:CSI03:1,2014-07-11T16:00:00Z,29.4412,-92.0613,29.4,11111222 
WAVCIS,ioos:station:WAVCIS:CSI03:1,2014-07-11T17:00:00Z,29.4412,-92.0613,30.2,11111222 
WAVCIS,ioos:station:WAVCIS:CSI03:1,2014-07-11T18:00:00Z,29.4412,-92.0613,30.1,11111222 
WAVCIS,ioos:station:WAVCIS:CSI03:1,2014-07-11T19:00:00Z,29.4412,-92.0613,30.4,11111222 
WAVCIS,ioos:station:WAVCIS:CSI03:1,2014-07-11T20:00:00Z,29.4412,-92.0613,30.5,11111222 
WAVCIS,ioos:station:WAVCIS:CSI03:1,2014-07-11T21:00:00Z,29.4412,-92.0613,31.8,11111222 
WAVCIS,ioos:station:WAVCIS:CSI03:1,2014-07-11T22:00:00Z,29.4412,-92.0613,32.3,11111222 
WAVCIS,ioos:station:WAVCIS:CSI03:1,2014-07-11T23:00:00Z,29.4412,-92.0613,31.5,11111222 
WAVCIS,ioos:station:WAVCIS:CSI03:1,2014-07-12T00:00:00Z,29.4412,-92.0613,30.5,11111222 
WAVCIS,ioos:station:WAVCIS:CSI03:1,2014-07-12T01:00:00Z,29.4412,-92.0613,30.3,11111222 
WAVCIS,ioos:station:WAVCIS:CSI03:1,2014-07-12T02:00:00Z,29.4412,-92.0613,26.4,11111222 
WAVCIS,ioos:station:WAVCIS:CSI03:1,2014-07-12T03:00:00Z,29.4412,-92.0613,26.9,11111222 
WAVCIS,ioos:station:WAVCIS:CSI03:1,2014-07-12T04:00:00Z,29.4412,-92.0613,28.3,11111222 
WAVCIS,ioos:station:WAVCIS:CSI03:1,2014-07-12T05:00:00Z,29.4412,-92.0613,28.3,11111222 
WAVCIS,ioos:station:WAVCIS:CSI03:1,2014-07-12T06:00:00Z,29.4412,-92.0613,27.9,11111222 
WAVCIS,ioos:station:WAVCIS:CSI03:1,2014-07-12T07:00:00Z,29.4412,-92.0613,28.1,11111222 
WAVCIS,ioos:station:WAVCIS:CSI03:1,2014-07-12T08:00:00Z,29.4412,-92.0613,28.2,11111222 
WAVCIS,ioos:station:WAVCIS:CSI03:1,2014-07-12T09:00:00Z,29.4412,-92.0613,28.5,11111222 
WAVCIS,ioos:station:WAVCIS:CSI03:1,2014-07-12T10:00:00Z,29.4412,-92.0613,28.4,11111222 
WAVCIS,ioos:station:WAVCIS:CSI03:1,2014-07-12T11:00:00Z,29.4412,-92.0613,27.9,11111222 
WAVCIS,ioos:station:WAVCIS:CSI03:1,2014-07-12T12:00:00Z,29.4412,-92.0613,28.2,11111222 
WAVCIS,ioos:station:WAVCIS:CSI03:1,2014-07-12T13:00:00Z,29.4412,-92.0613,28.5,11111222 
WAVCIS,ioos:station:WAVCIS:CSI03:1,2014-07-12T14:00:00Z,29.4412,-92.0613,28.5,11111222 
WAVCIS,ioos:station:WAVCIS:CSI03:1,2014-07-12T15:00:00Z,29.4412,-92.0613,28.8,11111222 
WAVCIS,ioos:station:WAVCIS:CSI03:1,2014-07-12T16:00:00Z,29.4412,-92.0613,29.3,11111222 
WAVCIS,ioos:station:WAVCIS:CSI03:1,2014-07-12T17:00:00Z,29.4412,-92.0613,29.6,11111222 
WAVCIS,ioos:station:WAVCIS:CSI03:1,2014-07-12T18:00:00Z,29.4412,-92.0613,30.6,11111222 
WAVCIS,ioos:station:WAVCIS:CSI03:1,2014-07-12T19:00:00Z,29.4412,-92.0613,30.3,11111222 
WAVCIS,ioos:station:WAVCIS:CSI03:1,2014-07-12T21:00:00Z,29.4412,-92.0613,30.9,11111222 
WAVCIS,ioos:station:WAVCIS:CSI03:1,2014-07-12T22:00:00Z,29.4412,-92.0613,31.4,11111222 
WAVCIS,ioos:station:WAVCIS:CSI03:1,2014-07-12T23:00:00Z,29.4412,-92.0613,29.1,11111222 
WAVCIS,ioos:station:WAVCIS:CSI03:1,2014-07-13T00:00:00Z,29.4412,-92.0613,29.5,11111222 
WAVCIS,ioos:station:WAVCIS:CSI03:1,2014-07-13T01:00:00Z,29.4412,-92.0613,29.8,11111222 
WAVCIS,ioos:station:WAVCIS:CSI03:1,2014-07-13T02:00:00Z,29.4412,-92.0613,29.8,11111222 
WAVCIS,ioos:station:WAVCIS:CSI03:1,2014-07-13T03:00:00Z,29.4412,-92.0613,28.6,11111222 
WAVCIS,ioos:station:WAVCIS:CSI03:1,2014-07-13T04:00:00Z,29.4412,-92.0613,28.4,11111222 
WAVCIS,ioos:station:WAVCIS:CSI03:1,2014-07-13T05:00:00Z,29.4412,-92.0613,28.4,11111222 
WAVCIS,ioos:station:WAVCIS:CSI03:1,2014-07-13T06:00:00Z,29.4412,-92.0613,28.5,11111222 
WAVCIS,ioos:station:WAVCIS:CSI03:1,2014-07-13T07:00:00Z,29.4412,-92.0613,28.3,11111222 
WAVCIS,ioos:station:WAVCIS:CSI03:1,2014-07-13T08:00:00Z,29.4412,-92.0613,27.6,11111222 
WAVCIS,ioos:station:WAVCIS:CSI03:1,2014-07-13T09:00:00Z,29.4412,-92.0613,27.7,11111222 
WAVCIS,ioos:station:WAVCIS:CSI03:1,2014-07-13T10:00:00Z,29.4412,-92.0613,27.7,11111222 
WAVCIS,ioos:station:WAVCIS:CSI03:1,2014-07-13T11:00:00Z,29.4412,-92.0613,28.1,11111222 
WAVCIS,ioos:station:WAVCIS:CSI03:1,2014-07-13T12:00:00Z,29.4412,-92.0613,28.4,11111222 
WAVCIS,ioos:station:WAVCIS:CSI03:1,2014-07-13T13:00:00Z,29.4412,-92.0613,28.6,11111222 
WAVCIS,ioos:station:WAVCIS:CSI03:1,2014-07-13T14:00:00Z,29.4412,-92.0613,28.5,11111222 
WAVCIS,ioos:station:WAVCIS:CSI03:1,2014-07-13T15:00:00Z,29.4412,-92.0613,28.5,11111222 
WAVCIS,ioos:station:WAVCIS:CSI03:1,2014-07-13T16:00:00Z,29.4412,-92.0613,28.6,11111222 
WAVCIS,ioos:station:WAVCIS:CSI03:1,2014-07-13T17:00:00Z,29.4412,-92.0613,30.0,11111222 
WAVCIS,ioos:station:WAVCIS:CSI03:1,2014-07-13T18:00:00Z,29.4412,-92.0613,31.1,11111222 
WAVCIS,ioos:station:WAVCIS:CSI03:1,2014-07-13T19:00:00Z,29.4412,-92.0613,29.8,11111222 
WAVCIS,ioos:station:WAVCIS:CSI03:1,2014-07-13T20:00:00Z,29.4412,-92.0613,28.9,11111222 
WAVCIS,ioos:station:WAVCIS:CSI03:1,2014-07-13T21:00:00Z,29.4412,-92.0613,28.8,11111222 
WAVCIS,ioos:station:WAVCIS:CSI03:1,2014-07-13T22:00:00Z,29.4412,-92.0613,29.5,11111222 
WAVCIS,ioos:station:WAVCIS:CSI03:1,2014-07-13T23:00:00Z,29.4412,-92.0613,30.0,11111222 
WAVCIS,ioos:station:WAVCIS:CSI03:1,2014-07-14T00:00:00Z,29.4412,-92.0613,30.3,11111222 
WAVCIS,ioos:station:WAVCIS:CSI03:1,2014-07-14T01:00:00Z,29.4412,-92.0613,29.4,11111222 
WAVCIS,ioos:station:WAVCIS:CSI03:1,2014-07-14T02:00:00Z,29.4412,-92.0613,29.2,11111222 
WAVCIS,ioos:station:WAVCIS:CSI03:1,2014-07-14T03:00:00Z,29.4412,-92.0613,29.6,11111222 
WAVCIS,ioos:station:WAVCIS:CSI03:1,2014-07-14T04:00:00Z,29.4412,-92.0613,29.6,11111222 
WAVCIS,ioos:station:WAVCIS:CSI03:1,2014-07-14T05:00:00Z,29.4412,-92.0613,29.7,11111222 
WAVCIS,ioos:station:WAVCIS:CSI03:1,2014-07-14T06:00:00Z,29.4412,-92.0613,29.6,11111222 
WAVCIS,ioos:station:WAVCIS:CSI03:1,2014-07-14T07:00:00Z,29.4412,-92.0613,29.5,11111222 
WAVCIS,ioos:station:WAVCIS:CSI03:1,2014-07-14T08:00:00Z,29.4412,-92.0613,29.6,11111222 
WAVCIS,ioos:station:WAVCIS:CSI03:1,2014-07-14T09:00:00Z,29.4412,-92.0613,29.6,11111222 
WAVCIS,ioos:station:WAVCIS:CSI03:1,2014-07-14T10:00:00Z,29.4412,-92.0613,29.1,11111222 
WAVCIS,ioos:station:WAVCIS:CSI03:1,2014-07-14T11:00:00Z,29.4412,-92.0613,29.2,11111222 
WAVCIS,ioos:station:WAVCIS:CSI03:1,2014-07-14T12:00:00Z,29.4412,-92.0613,28.5,11111222 
WAVCIS,ioos:station:WAVCIS:CSI03:1,2014-07-14T13:00:00Z,29.4412,-92.0613,28.9,11111222 
WAVCIS,ioos:station:WAVCIS:CSI03:1,2014-07-14T14:00:00Z,29.4412,-92.0613,29.5,11111222 
WAVCIS,ioos:station:WAVCIS:CSI03:1,2014-07-14T15:00:00Z,29.4412,-92.0613,30.6,11111222 
WAVCIS,ioos:station:WAVCIS:CSI03:1,2014-07-14T16:00:00Z,29.4412,-92.0613,29.9,11111222 
WAVCIS,ioos:station:WAVCIS:CSI03:1,2014-07-14T17:00:00Z,29.4412,-92.0613,30.0,11111222 
WAVCIS,ioos:station:WAVCIS:CSI03:1,2014-07-14T18:00:00Z,29.4412,-92.0613,30.0,11111222 
WAVCIS,ioos:station:WAVCIS:CSI03:1,2014-07-14T19:00:00Z,29.4412,-92.0613,30.4,11111222 
WAVCIS,ioos:station:WAVCIS:CSI03:1,2014-07-14T20:00:00Z,29.4412,-92.0613,30.4,11111222 
WAVCIS,ioos:station:WAVCIS:CSI03:1,2014-07-14T21:00:00Z,29.4412,-92.0613,30.7,11111222 
WAVCIS,ioos:station:WAVCIS:CSI03:1,2014-07-14T22:00:00Z,29.4412,-92.0613,30.6,11111222 
WAVCIS,ioos:station:WAVCIS:CSI03:1,2014-07-14T23:00:00Z,29.4412,-92.0613,31.8,11111222 
WAVCIS,ioos:station:WAVCIS:CSI03:1,2014-07-15T00:00:00Z,29.4412,-92.0613,31.0,11111222 
WAVCIS,ioos:station:WAVCIS:CSI03:1,2014-07-15T01:00:00Z,29.4412,-92.0613,30.6,11111222 
WAVCIS,ioos:station:WAVCIS:CSI03:1,2014-07-15T02:00:00Z,29.4412,-92.0613,29.8,11111222 
WAVCIS,ioos:station:WAVCIS:CSI03:1,2014-07-15T03:00:00Z,29.4412,-92.0613,29.5,11111222 
WAVCIS,ioos:station:WAVCIS:CSI03:1,2014-07-15T04:00:00Z,29.4412,-92.0613,29.4,11111222 
WAVCIS,ioos:station:WAVCIS:CSI03:1,2014-07-15T05:00:00Z,29.4412,-92.0613,29.4,11111222 
WAVCIS,ioos:station:WAVCIS:CSI03:1,2014-07-15T06:00:00Z,29.4412,-92.0613,29.5,11111222 
WAVCIS,ioos:station:WAVCIS:CSI03:1,2014-07-15T07:00:00Z,29.4412,-92.0613,29.6,11111222 
WAVCIS,ioos:station:WAVCIS:CSI03:1,2014-07-15T08:00:00Z,29.4412,-92.0613,29.4,11111222 
WAVCIS,ioos:station:WAVCIS:CSI03:1,2014-07-15T09:00:00Z,29.4412,-92.0613,29.2,11111222 
WAVCIS,ioos:station:WAVCIS:CSI03:1,2014-07-15T10:00:00Z,29.4412,-92.0613,29.1,11111222 
WAVCIS,ioos:station:WAVCIS:CSI03:1,2014-07-15T11:00:00Z,29.4412,-92.0613,29.1,11111222 
WAVCIS,ioos:station:WAVCIS:CSI03:1,2014-07-15T12:00:00Z,29.4412,-92.0613,29.0,11111222 
WAVCIS,ioos:station:WAVCIS:CSI03:1,2014-07-15T13:00:00Z,29.4412,-92.0613,29.4,11111222 
WAVCIS,ioos:station:WAVCIS:CSI03:1,2014-07-15T14:00:00Z,29.4412,-92.0613,29.7,11111222 
WAVCIS,ioos:station:WAVCIS:CSI03:1,2014-07-15T15:00:00Z,29.4412,-92.0613,28.3,11111222 
WAVCIS,ioos:station:WAVCIS:CSI03:1,2014-07-15T16:00:00Z,29.4412,-92.0613,29.1,11111222 
WAVCIS,ioos:station:WAVCIS:CSI03:1,2014-07-15T17:00:00Z,29.4412,-92.0613,26.0,11111222 
WAVCIS,ioos:station:WAVCIS:CSI03:1,2014-07-15T18:00:00Z,29.4412,-92.0613,25.6,11111222 
WAVCIS,ioos:station:WAVCIS:CSI03:1,2014-07-15T19:00:00Z,29.4412,-92.0613,25.3,11111222 
WAVCIS,ioos:station:WAVCIS:CSI03:1,2014-07-15T20:00:00Z,29.4412,-92.0613,25.4,11111222 